This is the latest recevied weather packets stored in our database for station/object W3EJE-13. If no packets are shown the sender has not sent any weather packets the latest 10 day(s).
| Time | Temp. | Humidity | Pressure | Rain* | Wind** | Luminosity | Snow |
|---|---|---|---|---|---|---|---|
| 1777493121 | 15° C | 99% | 1008.3 hPa | 1.78 mm | - | 133 W/m² | - |
| 1777492818 | 15° C | 99% | 1008.4 hPa | 1.78 mm | - | 111 W/m² | - |
| 1777492514 | 15° C | 99% | 1008.4 hPa | 1.27 mm | - | 63 W/m² | - |
| 1777492210 | 15° C | 99% | 1008.2 hPa | 1.27 mm | - | 86 W/m² | - |
| 1777491908 | 15° C | 99% | 1008.4 hPa | 0 mm | - | 70 W/m² | - |
| 1777491604 | 14.44° C | 99% | 1008.4 hPa | 0 mm | - | 101 W/m² | - |
| 1777491302 | 14.44° C | 99% | 1008.4 hPa | 0 mm | - | 75 W/m² | - |
| 1777490998 | 14.44° C | 99% | 1008.4 hPa | 0 mm | - | 68 W/m² | - |
| 1777490694 | 15° C | 99% | 1008.9 hPa | 0 mm | - | 107 W/m² | - |
| 1777490390 | 15° C | 99% | 1009 hPa | 0 mm | - | 102 W/m² | - |
| 1777490088 | 15° C | 99% | 1008.8 hPa | 0 mm | - | 135 W/m² | - |
| 1777489785 | 15° C | 99% | 1009 hPa | 0 mm | - | 183 W/m² | - |
| 1777489482 | 15° C | 99% | 1009.2 hPa | 1.78 mm | - | 484 W/m² | - |
| 1777489179 | 14.44° C | 99% | 1009.3 hPa | 3.05 mm | - | 200 W/m² | - |
| 1777488876 | 14.44° C | 99% | 1009.3 hPa | 1.27 mm | - | 147 W/m² | - |
| 1777488573 | 14.44° C | 99% | 1009.8 hPa | 0 mm | - | 75 W/m² | - |
| 1777488271 | 14.44° C | 99% | 1009.6 hPa | 1.78 mm | - | 52 W/m² | - |
| 1777487969 | 14.44° C | 99% | 1010.3 hPa | 1.78 mm | - | 12 W/m² | - |
| 1777487666 | 14.44° C | 99% | 1010.1 hPa | 0 mm | - | 13 W/m² | - |
| 1777487363 | 14.44° C | 99% | 1010 hPa | 0 mm | - | 19 W/m² | - |
| 1777487061 | 15° C | 99% | 1010 hPa | 0 mm | - | 33 W/m² | - |
| 1777486756 | 15° C | 99% | 1009.9 hPa | 0 mm | - | 100 W/m² | - |
| 1777486454 | 15° C | 99% | 1010 hPa | 0 mm | - | 81 W/m² | - |
| 1777486152 | 14.44° C | 99% | 1010.2 hPa | 0 mm | - | 148 W/m² | - |
| 1777485849 | 14.44° C | 99% | 1010.3 hPa | 0 mm | - | 161 W/m² | - |
* Rain latest hour (hover to see other rain measurements)
** Current wind speed in m/s (hover to see current wind gust speed)